User: anonymous   Login
Location: Churchill Northern Studies Centre
(58.7378°N, 93.8201°W)
Time: 10:26:13
(UTC-05:00)
Language:

Hubble Space Telescope - Orbit

View from above orbital plane
View from above orbital plane
View from above satellite
View from above satellite

Ground track
Ground track

The orbit data is extracted from the following two-line orbital elements,

1 20580U 90037B   18173.16959491  .00000430  00000-0  15369-4 0  9993
2 20580  28.4700  82.1684 0002716 189.7776  42.3635 15.09054402346228
Epoch (UTC): 22 June 2018 04:04:13
Eccentricity: 0.0002716
inclination: 28.4700°
perigee height: 537 km
apogee height: 541 km
right ascension of ascending node: 82.1684°
argument of perigee: 189.7776°
revolutions per day: 15.09054402
mean anomaly at epoch: 42.3635°
orbit number at epoch: 34622

The dashed part of the orbit path shows where the satellite is in the earth's shadow,  

DLR